[[{"header":{"parameterUnit":"m.s-1","parameterCategory":1,"la1":30.2991,"la2":30.254,"lo1":-89.0895,"lo2":-89.0444,"dy":0.0017,"dx":0.0017,"nx":28,"ny":28,"refTime":"2023-09-12T21:00:00:Z","depth":0,"parameterNumber":2,"parameterNumberName":"U-component_of_WINDS"},"data":[0,0,0,0,0,0,0,0,0,0,0,0,0,0,0,0,0,0,0,0,0,0,0,0,0,0,0,0,0,0,0,0,0,0,0,0,0,0,0,0,0,0,0,0,0,0,0,0,0,0,0,0,0,0,0,0,0,0,-2.0875,-2.0874,0,-2.0868,-2.0868,-2.0868,-2.0773,-2.077,-2.0768,-2.0766,-2.0762,-2.0764,-2.0766,0,0,0,0,0,0,0,0,0,0,0,0,0,-2.0806,-2.0808,-2.0875,-2.0874,-2.0874,-2.0868,-2.0868,-2.0868,-2.0773,-2.077,-2.0767,-2.0764,-2.0761,-2.0764,-2.0766,0,0,0,0,0,0,0,0,0,0,0,0,0,-2.0822,-2.0809,-2.0875,-2.0826,-2.0822,-2.0868,-2.0868,-2.0868,-2.0774,-2.077,-2.0766,-2.0763,-2.076,-2.0763,-2.0767,-2.086,0,0,-2.0777,-2.0778,0,0,0,0,0,0,0,0,-2.0821,-2.0824,-2.0833,-2.083,-2.0825,-2.0817,-2.0842,-2.0865,-2.0775,-2.0792,-2.0765,-2.0761,-2.0783,-2.0785,-2.0791,-2.086,-2.0859,-2.0777,-2.0779,-2.078,-2.0781,0,0,0,0,0,0,0,-2.082,-2.0824,-2.0872,-2.0834,-2.0828,-2.0805,-2.0803,-2.0846,-2.0808,-2.079,-2.0783,-2.0784,-2.078,-2.0789,-2.0791,-2.0859,-2.0777,-2.078,-2.0782,-2.0783,-2.1002,-2.1006,0,0,0,0,0,0,-2.0825,-2.0824,-2.0872,-2.0872,-2.0814,-2.081,-2.0807,-2.0824,-2.0808,-2.0802,-2.0787,-2.0779,-2.0785,-2.0787,-2.079,-2.0898,-2.078,-2.0783,-2.0785,-2.0998,-2.1003,-2.1007,0,0,0,0,0,0,-2.0824,-2.083,-2.0872,-2.0846,-2.0849,-2.0815,-2.0833,-2.0825,-2.0833,-2.0805,-2.0798,-2.0802,-2.0782,-2.0786,-2.0843,-2.0896,-2.0785,-2.0788,-2.0994,-2.1,-2.1005,-2.1114,0,0,0,0,0,0,-2.0823,-2.0831,-2.0866,-2.0847,-2.0851,-2.0925,-2.0837,-2.0828,-2.0839,-2.0829,-2.0817,-2.0812,-2.0779,-2.0838,-2.0846,-2.0899,-2.079,-2.0989,-2.0996,-2.1003,-2.1105,-2.1122,-2.1137,0,0,0,0,0,-2.082,-2.0897,-2.0868,-2.0874,-2.0894,-2.0928,-2.0931,-2.0891,-2.0844,-2.0878,-2.086,-2.0812,-2.0889,-2.0845,-2.0853,-2.0907,-2.0985,-2.0994,-2.1003,-2.1098,-2.1119,-2.1137,0,0,0,0,0,0,-2.0924,-2.0894,-2.0861,-2.0934,-2.0934,-2.0912,-2.0955,-2.0915,-2.0929,-2.0919,-2.087,-2.0868,-2.0933,-2.0925,-2.0877,-2.0996,-2.0929,-2.0939,-2.0998,-2.1018,-2.1034,-2.1035,-2.0793,0,0,0,0,0,-2.0955,-2.0985,-2.0957,-2.1024,-2.1026,-2.0991,-2.1004,-2.0973,-2.0972,-2.0972,-2.0958,-2.0959,-2.0983,-2.1,-2.1021,-2.1103,-2.1099,-2.1144,-2.116,-2.1174,-2.1184,-2.1226,-2.1246,-2.1036,-2.1036,-2.1036,0,0,-2.102,-2.1007,-2.103,-2.1045,-2.1041,-2.1074,-2.0992,-2.103,-2.1053,-2.0978,-2.1031,-2.102,-2.1018,-2.1088,-2.1118,-2.1084,-2.1241,-2.1185,-2.1196,-2.1199,-2.1237,-2.1257,-2.1275,-2.1042,-2.1041,-2.104,0,0,-2.1155,-2.1149,-2.1203,-2.1201,-2.1196,-2.1172,-2.1185,-2.1169,-2.1159,-2.121,-2.1154,-2.1182,-2.1224,-2.1225,-2.1231,-2.1365,-2.1321,-2.1373,-2.1457,-2.1499,-2.1516,-2.153,-2.1578,-2.1595,-2.1383,-2.1383,-2.1383,0,-2.1238,-2.1283,-2.1237,-2.1278,-2.1286,-2.1218,-2.1273,-2.1273,-2.1276,-2.1284,-2.1245,-2.1296,-2.129,-2.1359,-2.1391,-2.1399,-2.1412,-2.1374,-2.1517,-2.1531,-2.1544,-2.1588,-2.1606,-2.1389,-2.1388,-2.1388,-2.1387,0,-2.1384,-2.1416,-2.1461,-2.1464,-2.1477,-2.1526,-2.1487,-2.1506,-2.1473,-2.1453,-2.1506,-2.1496,-2.1513,-2.1527,-2.1497,-2.1592,-2.1571,-2.1525,-2.1457,-2.1571,-2.1612,-2.1629,-2.1398,-2.1396,-2.1394,-2.1392,0,0,-2.1586,-2.1561,-2.1578,-2.1578,-2.1567,-2.1592,-2.1636,-2.1652,-2.1669,-2.1673,-2.1709,-2.1746,-2.1703,-2.171,-2.1678,-2.1715,-2.1821,-2.1665,-2.1664,-2.1695,-2.1926,-2.196,-2.1981,-2.1792,-2.1795,-2.1798,-2.1926,0,-2.1717,-2.1791,-2.175,-2.183,-2.1859,-2.1793,-2.1832,-2.183,-2.1812,-2.1835,-2.1815,-2.1842,-2.1783,-2.1787,-2.182,-2.1802,-2.1867,-2.1792,-2.1826,-2.1828,-2.183,-2.2003,-2.204,-2.2161,-2.1942,-2.1944,-2.1946,0,-2.1879,-2.1888,-2.1971,-2.1952,-2.1963,-2.1999,-2.2009,-2.2031,-2.2027,-2.2011,-2.2018,-2.1977,-2.202,-2.1952,-2.201,-2.196,-2.1971,-2.1964,-2.1968,-2.197,-2.1895,-2.201,-2.2199,-2.2218,-2.1971,-2.1969,-2.1968,0,-2.2018,-2.2051,-2.2104,-2.2106,-2.2087,-2.2113,-2.2106,-2.2098,-2.2109,-2.2118,-2.2125,-2.214,-2.2148,-2.216,-2.2125,-2.2078,-2.2188,-2.2117,-2.2177,-2.2178,-2.2204,-2.2203,-2.2398,-2.2211,-2.221,-2.221,-2.221,0,-2.2169,-2.2222,-2.2166,-2.22,-2.2257,-2.2209,-2.2268,-2.2254,-2.2247,-2.2276,-2.2221,-2.225,-2.22,-2.2225,-2.2197,-2.2249,-2.2254,-2.2242,-2.2235,-2.2248,-2.2249,-2.2255,-2.2246,-2.2215,-2.2214,-2.2213,-2.2212,0,-2.2335,-2.2299,-2.2353,-2.2329,-2.2324,-2.2368,-2.2347,-2.2377,-2.2354,-2.2393,-2.2399,-2.2364,-2.2389,-2.2354,-2.2377,-2.2358,-2.243,-2.2409,-2.2431,-2.2425,-2.2487,-2.2482,-2.2694,-2.2719,-2.2516,-2.2517,-2.2519,0,-2.2433,-2.2472,-2.2452,-2.2466,-2.2462,-2.2488,-2.2498,-2.2452,-2.2466,-2.2463,-2.2493,-2.2514,-2.2527,-2.2571,-2.2549,-2.2565,-2.2544,-2.2617,-2.2547,-2.2559,-2.2546,-2.2544,-2.2548,-2.2632,-2.2635,-2.2637,-2.2638,0,-2.2612,-2.2592,-2.2609,-2.262,-2.2634,-2.264,-2.2643,-2.2659,-2.261,-2.2629,-2.2653,-2.2664,-2.2685,-2.2706,-2.2717,-2.271,-2.2667,-2.266,-2.2675,-2.2689,-2.2701,-2.2695,-2.2471,-2.2656,-2.2654,-2.2653,-2.2652,-2.2651,-2.2747,-2.2778,-2.2768,-2.2789,-2.2785,-2.2789,-2.2815,-2.2795,-2.2814,-2.2827,-2.2799,-2.283,-2.2824,-2.2833,-2.2831,-2.2855,-2.2824,-2.2845,-2.2851,-2.2857,-2.2867,-2.2696,-2.2857,-2.2857,-2.2856,-2.2856,-2.2855,0,-2.2923,-2.2912,-2.2932,-2.2936,-2.2952,-2.2908,-2.2908,-2.2925,-2.2953,-2.295,-2.2964,-2.2992,-2.3012,-2.299,-2.3005,-2.3029,-2.301,-2.3035,-2.3033,-2.3032,-2.2894,-2.288,-2.305,-2.305,-2.305,-2.305,-2.305,-2.305,-2.3016,-2.3067,-2.3045,-2.3093,-2.3082,-2.3112,-2.3116,-2.3118,-2.3116,-2.3149,-2.3164,-2.3149,-2.3139,-2.3153,-2.3169,-2.3162,-2.3171,-2.3203,-2.319,-2.3061,-2.3042,-2.3024,-2.301,-2.3205,-2.3206,-2.3326,-2.3327,-2.3328]},{"header":{"parameterUnit":"m.s-1","parameterCategory":1,"la1":30.2991,"la2":30.254,"lo1":-89.0895,"lo2":-89.0444,"dy":0.0017,"dx":0.0017,"nx":28,"ny":28,"refTime":"2023-09-12T21:00:00:Z","depth":0,"parameterNumber":3,"parameterNumberName":"V-component_of_WINDS"},"data":[0,0,0,0,0,0,0,0,0,0,0,0,0,0,0,0,0,0,0,0,0,0,0,0,0,0,0,0,0,0,0,0,0,0,0,0,0,0,0,0,0,0,0,0,0,0,0,0,0,0,0,0,0,0,0,0,0,0,-3.9617,-3.9617,0,-3.9658,-3.9658,-3.9659,-3.9605,-3.9603,-3.9602,-3.96,-3.9639,-3.9642,-3.9644,0,0,0,0,0,0,0,0,0,0,0,0,0,-3.9487,-3.949,-3.9616,-3.9617,-3.9618,-3.9658,-3.9658,-3.9659,-3.9606,-3.9603,-3.9601,-3.9599,-3.9638,-3.9641,-3.9645,0,0,0,0,0,0,0,0,0,0,0,0,0,-3.9537,-3.949,-3.9616,-3.9596,-3.9594,-3.9658,-3.9658,-3.9659,-3.9606,-3.9603,-3.96,-3.9598,-3.9637,-3.9641,-3.9645,-3.973,0,0,-3.9658,-3.966,0,0,0,0,0,0,0,0,-3.9534,-3.9542,-3.9598,-3.9597,-3.9596,-3.9624,-3.9627,-3.9683,-3.9607,-3.9602,-3.96,-3.9596,-3.9636,-3.964,-3.9654,-3.9731,-3.9733,-3.9659,-3.9661,-3.9663,-3.9664,0,0,0,0,0,0,0,-3.9531,-3.954,-3.9633,-3.9599,-3.9598,-3.9583,-3.9587,-3.9637,-3.9634,-3.9602,-3.9598,-3.9604,-3.9635,-3.965,-3.9655,-3.9734,-3.9659,-3.9662,-3.9665,-3.9667,-3.988,-3.9883,0,0,0,0,0,0,-3.953,-3.9537,-3.9631,-3.9634,-3.9558,-3.9588,-3.9592,-3.9618,-3.9634,-3.9634,-3.9606,-3.9601,-3.9644,-3.965,-3.9656,-3.9754,-3.9663,-3.9667,-3.9669,-3.9877,-3.9881,-3.9884,0,0,0,0,0,0,-3.9528,-3.9539,-3.963,-3.9585,-3.9595,-3.9593,-3.9622,-3.962,-3.9635,-3.9637,-3.9636,-3.9623,-3.9642,-3.965,-3.9711,-3.9755,-3.9669,-3.9673,-3.9873,-3.9878,-3.9882,-3.9953,0,0,0,0,0,0,-3.9524,-3.9539,-3.9572,-3.9586,-3.9598,-3.9686,-3.9625,-3.9623,-3.9643,-3.9637,-3.9653,-3.9652,-3.9641,-3.9705,-3.9716,-3.9759,-3.9676,-3.9869,-3.9875,-3.9881,-3.9946,-3.9959,-3.997,0,0,0,0,0,-3.952,-3.959,-3.9574,-3.9586,-3.9639,-3.9689,-3.9695,-3.9681,-3.9647,-3.9679,-3.968,-3.9652,-3.9749,-3.9712,-3.9723,-3.9769,-3.9867,-3.9874,-3.988,-3.9941,-3.9957,-3.997,0,0,0,0,0,0,-3.958,-3.9591,-3.9574,-3.9651,-3.9669,-3.968,-3.972,-3.9699,-3.9727,-3.9719,-3.97,-3.9704,-3.9769,-3.9775,-3.9734,-3.985,-3.9802,-3.9811,-3.9844,-3.9859,-3.987,-3.9867,-3.968,0,0,0,0,0,-3.9603,-3.9643,-3.965,-3.9717,-3.9727,-3.9722,-3.9743,-3.9731,-3.9749,-3.9756,-3.9762,-3.978,-3.9814,-3.9837,-3.9868,-3.9947,-3.9949,-3.9984,-3.9996,-4.0005,-4.0013,-4.0053,-4.0069,-3.9907,-3.9907,-3.9907,0,0,-3.9649,-3.966,-3.9686,-3.9729,-3.9742,-3.9783,-3.9729,-3.9775,-3.9805,-3.9763,-3.9821,-3.9826,-3.9844,-3.9914,-3.9946,-3.9921,-4.0058,-4.0014,-4.0022,-4.0025,-4.0062,-4.0078,-4.0091,-3.9912,-3.9911,-3.991,0,0,-3.9754,-3.9767,-3.9823,-3.9837,-3.9858,-3.9854,-3.9868,-3.9882,-3.9883,-3.9942,-3.9911,-3.9945,-4.0005,-4.0019,-4.0034,-4.0143,-4.0117,-4.0153,-4.0215,-4.0254,-4.0267,-4.0278,-4.0315,-4.0329,-4.0162,-4.0162,-4.0162,0,-3.9808,-3.987,-3.9855,-3.9903,-3.9921,-3.9886,-3.9942,-3.9956,-3.9986,-3.9999,-3.9972,-4.0045,-4.0055,-4.0127,-4.0154,-4.0168,-4.0181,-4.0151,-4.0266,-4.0277,-4.0287,-4.0323,-4.0337,-4.0166,-4.0166,-4.0165,-4.0165,0,-3.9935,-3.9978,-4.002,-4.0051,-4.0074,-4.0126,-4.0117,-4.0143,-4.0128,-4.0127,-4.0186,-4.0196,-4.0229,-4.0245,-4.0231,-4.0315,-4.0299,-4.027,-4.022,-4.0307,-4.034,-4.0353,-4.0172,-4.0171,-4.0169,-4.0168,0,0,-4.0078,-4.0099,-4.0115,-4.0127,-4.0147,-4.0179,-4.0229,-4.0261,-4.0283,-4.0304,-4.0344,-4.0395,-4.0367,-4.0384,-4.0371,-4.0406,-4.049,-4.0372,-4.0372,-4.0392,-4.058,-4.0601,-4.0617,-4.0473,-4.0476,-4.0478,-4.0578,0,-4.0182,-4.0268,-4.0256,-4.0338,-4.0376,-4.0343,-4.0386,-4.0402,-4.0401,-4.0433,-4.0432,-4.0468,-4.043,-4.0439,-4.0473,-4.0473,-4.0527,-4.0465,-4.0508,-4.0509,-4.0503,-4.0635,-4.0657,-4.0752,-4.0591,-4.0593,-4.0595,0,-4.0314,-4.0341,-4.0428,-4.044,-4.0455,-4.0494,-4.0522,-4.0553,-4.057,-4.0567,-4.0586,-4.0566,-4.0613,-4.0564,-4.0628,-4.0587,-4.0603,-4.0606,-4.0609,-4.0611,-4.0556,-4.0639,-4.0781,-4.0795,-4.0615,-4.0613,-4.0612,0,-4.0408,-4.0466,-4.0525,-4.0536,-4.0553,-4.058,-4.0588,-4.0602,-4.0622,-4.0646,-4.0659,-4.0688,-4.0704,-4.0726,-4.0714,-4.068,-4.078,-4.073,-4.0777,-4.0777,-4.0799,-4.0797,-4.0944,-4.0812,-4.0812,-4.0812,-4.0811,0,-4.0525,-4.0578,-4.0567,-4.0603,-4.0661,-4.0646,-4.0704,-4.0707,-4.072,-4.0755,-4.0728,-4.0761,-4.0744,-4.0776,-4.0767,-4.082,-4.0828,-4.0825,-4.0822,-4.0827,-4.0827,-4.0837,-4.0829,-4.0815,-4.0815,-4.0814,-4.0813,0,-4.0639,-4.0634,-4.0695,-4.0706,-4.071,-4.0752,-4.076,-4.0793,-4.0791,-4.0835,-4.0844,-4.084,-4.0876,-4.0867,-4.0905,-4.0899,-4.0966,-4.0955,-4.096,-4.0957,-4.1004,-4.0999,-4.1161,-4.1181,-4.1038,-4.1039,-4.104,0,-4.0713,-4.0754,-4.0768,-4.079,-4.08,-4.0836,-4.0856,-4.0842,-4.0864,-4.0885,-4.0915,-4.0948,-4.0974,-4.1032,-4.1031,-4.106,-4.1049,-4.1103,-4.1053,-4.1056,-4.1047,-4.1044,-4.1048,-4.1113,-4.1115,-4.1116,-4.1117,0,-4.0844,-4.0839,-4.087,-4.0899,-4.0924,-4.0947,-4.0966,-4.0985,-4.0972,-4.0998,-4.1034,-4.1054,-4.1094,-4.1126,-4.1152,-4.1159,-4.1136,-4.1133,-4.1145,-4.115,-4.1151,-4.1149,-4.0986,-4.1129,-4.1128,-4.1127,-4.1127,-4.1126,-4.0939,-4.0973,-4.0988,-4.1023,-4.1036,-4.1055,-4.1086,-4.1087,-4.1118,-4.1149,-4.1139,-4.1179,-4.1193,-4.1226,-4.1236,-4.1267,-4.1246,-4.1264,-4.1268,-4.1273,-4.1278,-4.1147,-4.1272,-4.1272,-4.1271,-4.1271,-4.1271,0,-4.1067,-4.1075,-4.1107,-4.1136,-4.1162,-4.1139,-4.116,-4.1183,-4.122,-4.1235,-4.1261,-4.1302,-4.1333,-4.1335,-4.1364,-4.1388,-4.1378,-4.1396,-4.1393,-4.1395,-4.1296,-4.1281,-4.1404,-4.1404,-4.1404,-4.1404,-4.1404,-4.1404,-4.1137,-4.1192,-4.1189,-4.125,-4.1257,-4.1298,-4.1311,-4.1328,-4.134,-4.1387,-4.1413,-4.1414,-4.1424,-4.1453,-4.148,-4.148,-4.1491,-4.1513,-4.1508,-4.1415,-4.1402,-4.1389,-4.1376,-4.1516,-4.1516,-4.1605,-4.1605,-4.1606]}]]